Temp
2 2 2 2 2 2 3 3 3 3 4 4 4 4 4 5 5 5 6 6 6 5 6 6 6 6 6 5 5 6 7 9 11 11 11 9 8 9 8 7 7 7 7 7 6
2 2 2 2 2 2 3 3 3 3 3 4 4 3 3 4 5 5 5 5 6 5 5 6 6 6 6 5 6 6 7 9 11 10 10 9 8 9 9 8 8 7 6 7 6
2 2 2 2 2 2 3 3 3 3 3 3 3 3 1 3 4 3 5 5 6 5 5 5 5 4 4 5 6 7 7 9 10 9 9 9 8 8 8 8 8 7 7 7 6
1 1 2 2 2 2 2 2 3 3 3 3 2 2 1 1 2 3 4 5 5 5 5 5 3 4 4 6 7 7 7 8 9 8 8 8 8 8 8 8 7 7 7 7 6
1 1 2 2 2 2 2 2 2 2 3 2 2 2 0 0 2 2 3 3 4 4 5 4 3 4 5 6 7 7 7 8 8 8 7 7 7 8 8 8 7 7 7 7 6
1 1 1 2 2 2 2 2 2 2 2 2 2 1 0 1 2 2 2 3 3 2 3 2 3 4 5 6 7 7 7 7 8 8 7 7 7 8 8 8 7 7 7 7 7
0 0 1 1 1 1 2 2 2 2 2 2 2 1 1 2 0 1 2 2 2 2 1 1 2 3 4 5 6 7 7 7 8 8 8 7 8 8 8 8 7 7 7 7 7
0 0 0 1 1 1 2 2 1 1 2 2 1 1 3 1 1 1 1 2 1 2 2 2 1 2 3 5 6 6 6 7 8 8 8 8 8 9 9 7 7 6 6 7 7
-1 -0 0 -0 0 1 1 1 1 1 2 1 1 1 2 1 1 1 0 1 0 2 2 2 2 3 3 4 5 6 7 8 9 9 9 8 8 9 8 7 7 7 6 7 7
-1 -1 -1 -0 0 1 1 1 0 1 2 1 1 1 1 -1 1 0 -0 -1 -0 0 1 2 2 2 3 5 7 8 8 8 9 10 8 9 8 8 9 8 7 7 7 6 6
-1 -1 -1 -1 0 1 1 1 -2 -3 1 -0 -1 1 0 0 0 -0 -1 -3 -2 -2 1 2 2 3 4 5 6 7 9 10 9 10 9 8 9 9 9 9 8 7 7 6 6
-1 -1 -2 -1 -1 0 -0 -1 -2 -1 2 1 1 1 1 0 0 -0 -1 -2 -2 -2 1 1 2 3 4 5 6 6 7 8 9 9 7 8 9 9 9 9 9 8 8 7 6
-2 -2 -2 -2 -1 -1 -1 -2 -2 -2 -0 -0 0 -0 0 1 1 -0 -1 -2 -1 -2 -2 1 4 3 4 5 6 6 7 7 8 9 7 7 9 9 10 10 9 8 8 8 7
-3 -2 -2 -2 -2 -2 -3 -3 -3 -2 -2 -0 -1 -1 -0 -0 -0 0 -1 -1 -1 -1 -2 -0 3 3 4 5 6 6 7 7 7 7 8 9 10 10 10 10 9 8 8 8 7
-3 -3 -3 -3 -3 -3 -3 -4 -4 -2 1 -1 -1 -1 -0 -1 -2 -1 0 -1 -1 -1 -0 1 3 3 3 5 5 6 6 7 6 7 7 8 9 10 10 11 10 10 9 8 7
-4 -4 -4 -4 -3 -3 -4 -4 -4 -3 2 -0 -1 -1 -1 -1 -1 -1 -1 -1 -1 -0 0 1 2 2 2 3 5 5 5 6 6 7 8 8 9 10 11 11 10 10 10 9 8
-4 -4 -4 -5 -4 -4 -5 -5 -4 -1 -0 -0 -1 -1 -1 0 -0 -1 -1 0 -0 -1 0 2 1 3 2 3 4 5 5 7 7 8 8 8 9 9 10 10 10 9 9 9 8
-5 -5 -5 -5 -5 -5 -7 -7 -3 -1 -1 -1 -2 -1 0 -0 0 -0 -1 -1 -1 -1 0 2 3 2 2 2 4 5 5 7 7 8 10 9 9 10 10 9 9 9 9 9 8
-6 -6 -6 -6 -5 -6 -7 -6 -2 -1 -2 -2 -2 -0 0 -0 -0 1 0 -0 -1 -1 0 2 4 4 3 3 3 5 4 5 7 7 8 10 9 9 9 9 9 9 9 8 8
-7 -7 -6 -6 -6 -8 -8 -7 -4 -4 -4 -3 -2 -1 -0 -1 0 1 1 -1 -1 -1 1 2 3 4 3 2 3 3 5 6 6 6 6 9 9 9 9 9 9 9 9 8 8
-8 -8 -9 -7 -8 -8 -8 -7 -5 -4 -4 -4 -3 -2 -2 -2 -2 -1 -0 -1 -2 -1 -0 1 2 3 3 3 3 3 4 5 6 6 7 8 9 9 8 7 7 7 8 8 7
-10 -11 -9 -8 -9 -8 -9 -7 -6 -5 -5 -5 -5 -4 -4 -3 -3 -2 -1 -1 -2 -3 -1 -0 1 3 2 3 3 4 4 4 6 6 7 7 7 7 6 6 6 6 7 7 7
-11 -11 -10 -9 -9 -9 -8 -8 -7 -6 -6 -5 -5 -4 -4 -4 -3 -2 -2 -2 -3 -3 -3 -1 1 2 4 3 3 4 4 4 5 5 4 5 7 7 6 6 5 5 6 6 6
-11 -11 -11 -10 -9 -8 -8 -8 -7 -7 -6 -5 -5 -4 -4 -4 -4 -3 -3 -2 -3 -3 -3 -3 -1 2 4 4 4 4 4 4 5 5 5 5 6 6 5 5 5 5 5 5 5
-11 -11 -10 -10 -10 -9 -9 -7 -7 -7 -7 -6 -5 -5 -4 -4 -4 -4 -3 -3 -3 -3 -4 -3 -1 0 2 2 2 4 3 3 3 4 5 5 5 6 5 5 5 5 4 6 5
-12 -11 -11 -10 -9 -9 -8 -8 -8 -7 -7 -6 -6 -5 -5 -5 -4 -4 -4 -4 -4 -3 -3 -4 -3 -3 -1 1 1 2 2 3 3 3 3 4 4 4 5 4 4 3 4 4 5
-12 -11 -11 -10 -10 -9 -8 -8 -8 -7 -7 -7 -6 -6 -6 -5 -6 -6 -6 -6 -6 -5 -4 -4 -3 -3 -2 -1 0 1 1 2 2 3 3 4 4 4 3 3 2 2 2 1 2
Height
3110 3109 3107 3106 3104 3102 3100 3099 3097 3095 3094 3091 3091 3091 3092 3091 3092 3093 3093 3093 3095 3093 3094 3096 3099 3101 3103 3105 3108 3111 3111 3106 3103 3104 3105 3103 3105 3106 3105 3105 3104 3103 3101 3099 3095
3107 3105 3104 3102 3100 3098 3095 3095 3093 3090 3088 3085 3084 3083 3084 3083 3085 3088 3085 3086 3089 3088 3091 3092 3095 3097 3098 3102 3106 3105 3105 3102 3101 3102 3102 3102 3103 3103 3104 3103 3102 3101 3097 3094 3091
3102 3100 3099 3097 3095 3093 3091 3091 3087 3086 3084 3081 3079 3077 3077 3077 3079 3082 3081 3080 3082 3084 3086 3089 3092 3093 3095 3099 3100 3101 3099 3099 3099 3099 3099 3100 3099 3100 3100 3100 3100 3098 3096 3090 3088
3098 3096 3094 3092 3090 3087 3085 3084 3083 3081 3079 3076 3073 3071 3071 3073 3081 3073 3075 3074 3075 3078 3082 3084 3088 3090 3091 3095 3097 3097 3097 3097 3097 3096 3095 3096 3097 3096 3097 3097 3094 3093 3090 3088 3084
3093 3091 3089 3087 3086 3083 3081 3080 3078 3076 3073 3071 3069 3066 3065 3065 3067 3071 3071 3070 3071 3073 3078 3081 3085 3087 3088 3092 3094 3092 3094 3094 3093 3093 3092 3093 3093 3093 3093 3093 3089 3088 3087 3085 3083
3088 3086 3085 3083 3082 3079 3077 3076 3073 3071 3068 3066 3064 3062 3059 3057 3063 3063 3066 3068 3069 3071 3073 3079 3083 3085 3087 3088 3089 3090 3090 3089 3090 3089 3089 3089 3089 3089 3089 3089 3086 3085 3083 3082 3080
3084 3082 3080 3077 3076 3074 3073 3071 3068 3067 3063 3061 3058 3054 3055 3056 3052 3054 3060 3062 3063 3067 3068 3074 3079 3081 3083 3085 3084 3086 3086 3085 3084 3085 3085 3086 3084 3083 3084 3085 3083 3081 3080 3079 3077
3079 3077 3075 3072 3071 3069 3068 3066 3063 3061 3058 3056 3053 3050 3046 3050 3049 3050 3052 3055 3059 3062 3065 3068 3072 3073 3076 3081 3081 3081 3081 3079 3079 3080 3080 3083 3078 3080 3079 3079 3080 3080 3078 3076 3074
3072 3072 3070 3068 3065 3064 3063 3061 3058 3055 3053 3050 3048 3046 3043 3043 3044 3044 3044 3047 3052 3057 3060 3064 3066 3067 3073 3075 3076 3075 3073 3074 3074 3074 3076 3077 3075 3076 3075 3075 3077 3078 3077 3073 3072
3068 3066 3066 3064 3063 3060 3059 3056 3052 3051 3048 3045 3042 3044 3040 3041 3039 3040 3039 3039 3044 3051 3055 3056 3060 3063 3066 3069 3066 3069 3069 3070 3068 3070 3071 3072 3071 3072 3072 3072 3073 3074 3074 3073 3069
3063 3061 3062 3061 3058 3055 3055 3052 3050 3045 3045 3042 3041 3034 3035 3036 3035 3037 3037 3039 3040 3045 3050 3053 3057 3052 3059 3063 3066 3067 3064 3063 3065 3066 3067 3068 3067 3068 3068 3069 3069 3070 3071 3070 3068
3058 3057 3058 3056 3053 3051 3049 3048 3047 3044 3039 3033 3031 3028 3028 3032 3031 3034 3036 3039 3039 3041 3048 3051 3047 3054 3058 3060 3062 3063 3062 3064 3064 3063 3065 3065 3063 3063 3064 3064 3065 3066 3066 3067 3066
3053 3053 3053 3053 3050 3047 3046 3047 3043 3040 3035 3032 3029 3027 3025 3025 3026 3031 3033 3036 3035 3035 3039 3045 3049 3050 3053 3055 3057 3057 3059 3062 3063 3061 3062 3062 3059 3058 3059 3060 3061 3061 3063 3064 3063
3046 3046 3048 3048 3049 3045 3043 3043 3041 3039 3033 3034 3030 3026 3024 3023 3023 3027 3030 3036 3035 3036 3038 3039 3043 3045 3048 3049 3053 3052 3056 3059 3060 3060 3057 3056 3051 3051 3052 3053 3055 3057 3058 3059 3060
3041 3040 3042 3042 3042 3042 3042 3041 3041 3039 3034 3031 3028 3026 3024 3026 3025 3024 3024 3029 3031 3033 3037 3035 3037 3040 3042 3044 3048 3048 3054 3054 3057 3056 3056 3053 3052 3048 3047 3048 3050 3052 3053 3054 3055
3034 3034 3036 3037 3037 3038 3038 3038 3041 3042 3028 3029 3027 3027 3027 3026 3023 3023 3022 3024 3028 3032 3033 3033 3034 3036 3036 3041 3044 3047 3050 3051 3053 3052 3048 3048 3049 3044 3042 3043 3046 3047 3048 3050 3051
3027 3028 3030 3030 3032 3034 3035 3037 3044 3035 3029 3029 3026 3025 3025 3025 3024 3022 3021 3021 3022 3028 3027 3029 3029 3032 3033 3036 3040 3043 3045 3045 3046 3042 3040 3043 3043 3041 3039 3041 3043 3045 3046 3047 3049
3019 3021 3023 3025 3026 3029 3032 3038 3037 3027 3027 3026 3024 3024 3025 3023 3023 3022 3021 3020 3019 3023 3025 3024 3025 3026 3030 3033 3034 3037 3039 3036 3035 3031 3030 3034 3034 3034 3037 3038 3039 3041 3043 3045 3046
3012 3013 3016 3019 3020 3024 3028 3030 3026 3025 3024 3024 3022 3023 3022 3022 3021 3020 3020 3019 3019 3020 3024 3020 3018 3023 3026 3029 3032 3032 3032 3036 3034 3036 3030 3024 3033 3033 3033 3036 3037 3039 3041 3043 3044
3005 3006 3010 3011 3015 3019 3021 3019 3022 3021 3021 3023 3021 3021 3020 3020 3019 3017 3017 3017 3016 3016 3019 3019 3018 3018 3022 3026 3027 3026 3031 3032 3031 3032 3032 3023 3026 3030 3030 3033 3034 3037 3039 3041 3042
3000 3001 3005 3007 3009 3012 3009 3012 3016 3017 3019 3021 3019 3019 3019 3019 3018 3017 3016 3015 3013 3014 3016 3018 3019 3018 3019 3017 3020 3023 3022 3023 3026 3027 3024 3025 3023 3023 3026 3028 3032 3035 3037 3038 3038
2995 2997 3002 3002 3004 3002 3002 3008 3012 3013 3014 3015 3015 3015 3016 3017 3015 3015 3015 3014 3011 3010 3011 3013 3014 3011 3012 3013 3015 3016 3018 3020 3018 3022 3022 3024 3024 3026 3026 3028 3030 3034 3036 3037 3038
2990 2991 2995 2996 2995 2997 3000 3001 3005 3008 3009 3011 3011 3012 3013 3014 3015 3012 3012 3012 3009 3009 3009 3010 3010 3010 3007 3012 3012 3012 3013 3016 3018 3020 3024 3023 3023 3024 3025 3028 3030 3031 3034 3035 3036
2987 2987 2987 2988 2989 2992 2996 2997 2999 3001 3004 3007 3008 3009 3009 3009 3010 3009 3010 3011 3009 3008 3008 3006 3007 3006 3004 3004 3004 3007 3008 3012 3013 3015 3018 3019 3019 3020 3023 3023 3026 3027 3028 3029 3030
2978 2978 2982 2982 2985 2987 2990 2991 2993 2996 2998 3001 3002 3004 3005 3006 3006 3007 3008 3009 3010 3009 3007 3006 3005 3005 3005 3004 3004 3003 3006 3011 3013 3014 3014 3016 3016 3017 3020 3023 3024 3023 3021 3022 3024
2971 2974 2978 2978 2981 2983 2985 2985 2988 2991 2994 2995 2998 3000 3001 3002 3003 3003 3005 3005 3005 3007 3007 3005 3004 3002 3003 3004 3005 3004 3005 3008 3010 3012 3014 3015 3015 3017 3018 3018 3020 3020 3018 3018 3017
2965 2969 2971 2972 2976 2977 2979 2982 2985 2989 2988 2990 2994 2995 2996 2999 2997 2996 2995 2996 3000 3003 3004 3005 3004 3004 3003 3004 3004 3003 3002 3005 3007 3009 3011 3011 3012 3012 3013 3015 3016 3015 3013 3012 3009
Wind_Speed
16 19 20 19 21 21 21 21 23 25 27 28 34 36 33 33 29 27 26 26 21 22 24 23 24 21 19 20 20 16 20 24 20 16 13 12 12 10 14 13 14 13 15 19 21
24 24 24 27 26 26 24 25 26 26 27 29 32 35 34 34 31 24 28 25 24 22 24 25 24 21 21 20 21 20 21 20 16 14 14 13 10 11 15 12 14 15 17 19 20
26 26 27 27 25 24 24 27 27 28 28 30 31 32 33 31 29 17 23 23 23 22 22 23 21 20 22 20 23 21 28 17 17 15 14 14 13 12 14 14 13 11 15 21 19
25 24 24 23 23 22 23 25 26 27 30 32 31 30 29 29 13 21 22 19 21 22 25 24 23 23 24 26 21 27 22 21 17 17 16 15 13 14 14 16 18 18 18 18 19
22 23 23 23 23 24 24 25 27 27 28 30 29 28 25 32 30 27 20 12 13 15 23 24 24 23 25 22 23 23 24 18 19 19 17 15 17 16 17 16 20 17 14 15 15
23 24 22 22 23 24 24 26 29 28 26 28 27 25 24 30 29 29 27 27 14 10 18 17 19 19 19 23 21 23 22 23 20 19 19 18 19 17 18 14 16 16 13 13 12
24 25 23 21 22 22 24 25 28 27 25 26 26 26 27 22 24 32 22 27 27 19 19 17 18 16 17 20 20 21 27 19 23 22 21 18 23 22 19 16 14 13 12 13 12
25 24 21 19 21 22 23 26 26 25 24 25 24 26 30 22 22 20 26 33 33 23 23 23 17 21 20 16 18 17 23 25 21 20 20 19 24 14 11 15 13 13 13 13 12
23 24 21 20 22 24 24 27 25 23 23 23 23 23 25 13 14 16 22 32 38 23 22 26 25 25 17 20 19 20 23 23 19 19 18 20 17 13 14 13 14 15 14 13 13
24 22 21 22 25 25 26 27 26 24 21 20 18 13 12 12 15 20 16 20 41 23 26 28 29 25 26 26 28 22 21 21 20 17 18 20 20 17 15 14 15 13 16 15 12
24 22 22 22 25 27 26 26 25 25 23 18 19 23 21 16 10 11 10 17 19 22 24 23 26 36 31 30 28 23 19 18 15 13 16 17 19 19 18 17 16 16 16 15 13
25 25 23 22 23 25 27 24 23 25 27 19 14 19 19 24 23 17 15 16 19 25 22 23 34 28 26 29 28 29 29 21 15 11 13 16 19 19 19 18 17 17 16 16 14
25 26 23 22 21 23 23 21 22 25 30 3 5 9 10 11 21 19 15 14 16 26 24 29 24 25 26 26 28 29 30 25 20 11 13 15 22 22 21 19 18 17 16 16 16
24 25 23 21 20 18 19 19 19 21 11 3 4 5 9 7 10 23 18 15 17 19 18 21 26 20 20 29 26 29 24 23 21 19 21 14 21 20 19 19 21 18 19 18 17
25 25 22 20 17 15 15 14 12 16 6 2 4 4 7 6 8 7 23 26 19 18 16 24 14 27 30 25 27 30 19 20 21 23 21 22 14 17 15 18 20 20 19 17 17
26 25 21 21 17 15 11 9 10 4 5 1 1 6 8 13 10 9 8 27 23 21 20 19 15 21 23 24 22 19 19 16 17 20 20 24 22 17 18 17 12 12 14 17 17
27 25 22 20 17 13 8 4 8 8 2 2 3 7 9 7 8 9 7 12 22 20 30 22 26 17 17 21 21 21 20 12 14 16 15 18 18 23 5 4 7 10 10 14 15
27 25 22 20 18 13 7 3 12 5 7 7 6 8 4 4 3 5 6 8 20 17 18 27 22 24 16 23 24 26 27 15 14 11 15 23 11 21 11 10 8 11 14 11 12
28 25 23 20 18 14 11 16 9 10 9 8 11 10 6 3 4 5 8 4 8 18 20 17 29 11 22 20 22 22 36 31 24 12 9 11 16 14 10 9 5 6 8 8 10
27 28 22 21 17 13 18 21 16 13 9 6 7 6 6 4 2 3 4 4 1 11 21 16 14 20 19 19 27 27 17 28 24 12 12 13 14 11 8 11 4 5 8 6 6
24 23 16 16 15 22 28 20 14 15 13 9 9 11 9 7 4 4 2 3 5 3 14 18 16 16 16 26 26 25 29 21 25 25 9 12 13 12 9 5 3 2 6 3 2
18 18 16 14 23 28 30 21 18 13 18 18 13 15 13 11 10 7 7 6 10 4 5 19 8 20 21 23 22 23 28 26 20 12 23 13 2 9 7 5 5 1 3 3 3
19 22 17 20 24 24 19 21 21 19 18 15 17 16 17 15 10 8 10 6 10 5 4 7 14 15 19 14 15 21 28 28 29 21 17 12 10 11 6 3 5 4 5 7 8
23 16 19 25 28 21 21 18 20 18 20 19 17 17 15 16 17 14 10 7 9 12 7 3 14 20 17 16 18 20 14 18 16 20 21 23 16 14 8 12 10 12 11 11 12
30 28 14 16 27 24 21 15 21 22 17 19 20 21 18 19 19 21 19 16 10 10 14 5 8 12 17 9 8 12 19 14 16 18 15 17 14 14 12 12 14 14 16 23 18
35 30 20 22 15 21 28 26 17 16 21 19 21 17 20 23 20 12 17 15 13 10 7 9 5 5 8 8 7 9 13 17 17 17 18 19 19 18 17 14 12 15 16 19 23
37 32 25 16 20 19 19 23 24 20 19 18 15 18 18 16 17 19 21 14 16 14 11 11 12 7 6 8 8 12 19 18 17 17 15 17 12 6 7 10 13 17 18 18 21
Wind_Direction
300 302 298 297 302 303 308 308 314 320 322 313 289 278 274 271 268 269 268 261 255 250 241 233 228 222 225 226 220 236 240 250 257 254 244 236 255 256 251 268 281 284 302 300 309
297 296 294 297 295 296 301 303 306 313 318 325 321 284 272 268 267 265 260 260 253 244 239 236 229 228 227 226 225 222 236 246 262 253 235 241 264 264 260 275 282 284 293 313 316
292 292 291 293 297 301 302 300 303 305 308 315 327 312 273 269 269 266 261 257 249 240 235 230 225 223 226 225 223 229 236 248 261 244 230 241 251 267 260 266 280 281 286 300 320
289 289 290 293 299 304 306 306 303 302 300 307 319 323 283 265 261 248 252 246 241 231 225 221 219 221 222 224 228 234 241 252 252 251 236 248 256 256 261 271 276 290 297 306 321
290 291 294 299 302 306 307 307 303 301 303 305 309 314 303 262 252 257 241 245 243 227 221 219 219 222 225 231 231 240 243 252 250 239 243 247 256 262 268 267 275 296 293 306 317
292 290 292 298 303 306 307 306 304 304 305 304 302 303 301 285 257 258 249 241 245 232 201 212 224 225 233 233 237 239 252 246 252 243 243 252 262 262 266 269 270 297 288 303 314
291 291 296 304 309 311 313 310 305 306 306 303 300 294 289 324 270 259 252 243 231 224 221 226 223 225 230 235 237 240 244 257 245 242 246 255 264 264 260 254 261 282 283 300 308
289 289 296 307 310 314 317 315 315 314 312 303 301 295 293 299 275 271 255 242 229 225 232 216 226 235 226 234 243 246 244 250 250 242 241 241 259 263 242 232 261 256 259 291 298
290 294 302 310 310 314 319 319 324 323 318 310 306 299 298 297 292 264 249 238 221 223 234 225 227 223 230 231 241 240 243 240 250 230 231 234 257 251 230 251 257 258 248 274 292
288 293 303 307 306 311 318 321 326 326 326 320 305 303 291 265 273 278 253 239 213 237 242 229 228 229 224 223 231 235 230 245 250 228 232 239 256 238 244 258 256 254 251 247 272
288 292 297 301 304 309 316 324 340 334 341 312 273 281 253 252 229 241 264 219 221 227 228 231 224 224 224 229 234 240 250 260 245 240 229 247 254 246 245 254 258 257 240 244 251
289 292 295 300 304 311 320 333 331 322 324 307 289 285 274 257 248 229 233 236 238 219 225 223 232 231 232 234 237 235 245 250 250 245 244 255 256 249 242 247 256 253 246 244 244
286 288 293 296 302 311 320 330 333 332 328 349 338 342 336 272 239 223 231 223 259 222 200 225 233 236 227 233 230 234 238 242 249 241 262 260 262 250 243 243 250 243 243 247 241
281 283 286 289 297 308 316 330 336 339 327 302 327 341 353 344 243 225 217 214 217 234 234 240 232 238 233 228 226 239 236 241 245 249 255 265 257 249 244 242 243 248 245 241 238
278 279 281 281 285 295 308 327 340 337 294 291 332 332 342 360 292 275 224 218 223 236 221 235 225 226 233 227 227 238 243 243 237 247 254 254 257 264 250 240 246 249 248 241 232
272 272 273 274 278 283 299 324 340 317 234 276 280 337 319 306 292 274 227 218 223 230 239 240 235 242 229 227 230 236 234 234 232 240 242 244 252 269 250 239 239 242 243 234 231
266 269 268 265 269 267 275 299 290 240 310 264 262 322 321 308 277 236 240 220 208 223 237 241 239 243 232 227 223 216 206 212 221 224 234 233 234 237 223 240 238 240 231 231 229
261 263 261 260 257 251 244 225 245 274 235 272 296 320 292 322 239 258 229 238 218 216 234 232 227 226 223 215 217 211 205 209 215 231 223 224 236 235 241 243 241 236 219 227 241
259 257 254 253 248 239 218 220 239 252 249 264 286 278 248 310 288 285 222 282 232 214 220 249 237 228 221 209 206 220 224 225 259 254 277 181 219 237 227 235 237 201 214 232 235
256 257 254 246 238 215 221 222 229 233 243 258 249 246 251 295 297 297 198 355 275 232 220 234 264 231 225 219 219 229 227 218 227 245 238 245 198 244 183 207 193 227 219 218 226
253 261 261 243 216 209 220 225 242 237 234 237 234 241 248 289 284 289 272 196 37 32 222 229 245 226 221 214 218 215 234 234 228 223 236 236 251 214 176 151 156 143 172 171 230
246 247 243 239 208 217 225 230 230 238 237 239 242 240 253 264 286 268 243 288 291 358 262 212 263 229 228 224 224 219 221 224 227 213 230 231 288 187 166 121 117 173 227 267 346
238 241 226 220 220 223 233 236 231 235 229 234 235 242 246 257 266 259 255 266 299 278 18 173 226 240 216 200 216 223 224 228 230 235 227 240 212 202 226 277 301 295 261 278 295
226 237 228 224 227 223 228 232 228 231 226 231 233 236 243 246 243 251 256 268 294 283 230 225 226 235 235 236 218 208 206 215 224 216 230 229 238 234 260 275 294 304 293 290 294
224 223 225 223 226 232 226 234 230 225 230 222 231 229 235 246 248 249 250 259 272 276 283 270 236 245 233 251 238 218 206 209 216 224 243 238 240 256 267 275 280 288 294 274 288
224 224 229 233 230 224 229 228 228 227 223 225 224 233 236 239 241 256 237 246 241 255 270 262 288 294 255 228 244 231 224 227 230 235 242 248 260 264 264 258 266 277 286 273 268
223 224 227 230 224 233 224 227 231 233 244 224 220 233 238 236 251 247 255 264 248 249 252 249 243 224 261 242 258 254 235 228 231 233 238 242 251 261 252 265 273 283 285 294 271